FW2538 Weather Reports


time (UTC)temp
C
wind
direction
speed
KPH
gust
KPH
rain 1hr
cm
rain 24hr
cm
rain mn
cm
humidity
%
barometer
mb
20190826030013 15 123 0.0 0.0 0.00 0.00 0.00 80 1017.6
20190826024511 15 123 0.0 1.6 0.00 0.00 0.00 80 1017.6
20190826023028 15 123 0.0 0.0 0.00 0.00 0.00 79 1017.6
20190826021501 15 123 0.0 0.0 0.00 0.00 0.00 78 1017.7
20190826020256 16 123 0.0 0.0 0.00 0.00 0.00 77 1017.7
20190826014640 16 123 0.0 1.6 0.00 0.00 0.00 75 1017.7
20190826013208 16 123 0.0 1.6 0.00 0.00 0.00 75 1017.8
20190826011641 16 123 0.0 3.2 0.00 0.00 0.00 75 1017.8
20190826010233 16 123 0.0 0.0 0.00 0.00 0.00 75 1017.8
20190826004614 16 123 0.0 1.6 0.00 0.00 0.00 75 1017.7
20190826003138 16 123 0.0 1.6 0.00 0.00 0.00 74 1017.9
20190826001615 17 123 0.0 1.6 0.00 0.00 0.00 73 1018.0
20190826000141 17 123 0.0 1.6 0.00 0.00 0.00 72 1018.0
20190825234602 17 123 0.0 1.6 0.00 0.00 0.00 70 1018.2
20190825233124 17 123 0.0 3.2 0.00 0.00 0.00 71 1018.1
20190825231632 17 123 0.0 1.6 0.00 0.00 0.00 70 1018.2
20190825230102 18 123 0.0 0.0 0.00 0.00 0.00 69 1018.2
20190825224635 18 123 0.0 1.6 0.00 0.00 0.00 68 1018.3
20190825223107 19 123 0.0 1.6 0.00 0.00 0.00 66 1018.4
20190825221549 18 123 0.0 3.2 0.00 0.00 0.00 66 1018.3
20190825220052 19 123 0.0 1.6 0.00 0.00 0.00 65 1018.4
20190825214540 20 123 0.0 1.6 0.00 0.00 0.00 63 1018.4
20190825213057 20 93 0.0 3.2 0.00 0.00 0.00 62 1018.4
20190825211535 21 93 0.0 1.6 0.00 0.00 0.00 60 1018.4
20190825210044 21 93 0.0 1.6 0.00 0.00 0.00 58 1018.3
20190825204547 21 93 0.0 6.4 0.00 0.00 0.00 57 1018.4
20190825203052 22 110 1.6 4.8 0.00 0.00 0.00 56 1018.4
20190825201530 22 117 0.0 0.0 0.00 0.00 0.00 54 1018.3
20190825200123 23 105 1.6 6.4 0.00 0.00 0.00 53 1018.2
20190825194605 23 107 0.0 6.4 0.00 0.00 0.00 53 1018.3
20190825193044 23 98 0.0 4.8 0.00 0.00 0.00 53 1018.2
20190825191603 22 101 4.8 9.7 0.00 0.00 0.00 56 1018.1
20190825190104 22 93 0.0 1.6 0.00 0.00 0.00 56 1018.1
20190825184615 23 93 0.0 1.6 0.00 0.00 0.00 52 1017.8
20190825183030 24 93 1.6 4.8 0.00 0.00 0.00 50 1017.6
20190825181529 24 90 0.0 1.6 0.00 0.00 0.00 51 1017.3
20190825180039 25 90 0.0 4.8 0.00 0.00 0.00 49 1017.1
20190825174553 26 103 0.0 3.2 0.00 0.00 0.00 46 1016.8
20190825173054 26 101 1.6 6.4 0.00 0.00 0.00 44 1016.7
20190825171532 26 94 1.6 4.8 0.00 0.00 0.00 43 1016.7
20190825170040 27 69 3.2 4.8 0.00 0.00 0.00 44 1016.5
20190825164542 27 302 1.6 3.2 0.00 0.00 0.00 44 1016.4
20190825163016 27 302 0.0 0.0 0.00 0.00 0.00 46 1016.3
20190825161527 26 302 0.0 3.2 0.00 0.00 0.00 49 1016.3
20190825160027 26 302 0.0 1.6 0.00 0.00 0.00 50 1016.2
20190825154524 26 302 0.0 3.2 0.00 0.00 0.00 49 1016.3
20190825153014 26 304 0.0 3.2 0.00 0.00 0.00 50 1016.3
20190825151539 26 304 0.0 1.6 0.00 0.00 0.00 51 1016.1
20190825150051 26 304 0.0 1.6 0.00 0.00 0.00 48 1016.2
20190825144519 26 304 0.0 3.2 0.00 0.00 0.00 51 1016.1
20190825143021 26 305 1.6 4.8 0.00 0.00 0.00 51 1016.2
20190825141521 27 321 0.0 3.2 0.00 0.00 0.00 49 1016.3
20190825140041 27 19 1.6 8.0 0.00 0.00 0.00 46 1016.4
20190825134553 27 326 1.6 6.4 0.00 0.00 0.00 46 1016.4
20190825133011 28 329 4.8 16.1 0.00 0.00 0.00 42 1016.4
20190825131508 28 11 1.6 12.9 0.00 0.00 0.00 42 1016.5
20190825130010 30 355 4.8 12.9 0.00 0.00 0.00 39 1016.5
20190825124506 30 47 4.8 14.5 0.00 0.00 0.00 39 1016.5
20190825123004 30 35 4.8 14.5 0.00 0.00 0.00 41 1016.7
20190825120200 29 11 4.8 16.1 0.00 0.00 0.00 38 1016.8
20190825114749 28 72 3.2 17.7 0.00 0.00 0.00 40 1017.0
20190825113144 28 21 6.4 17.7 0.00 0.00 0.00 42 1017.1
20190825111811 29 84 6.4 17.7 0.00 0.00 0.00 44 1017.2
20190825110146 28 44 4.8 17.7 0.00 0.00 0.00 46 1017.3
20190825104620 27 360 3.2 14.5 0.00 0.00 0.00 49 1017.4
20190825103105 27 33 8.0 14.5 0.00 0.00 0.00 48 1017.5
20190825101614 27 12 3.2 16.1 0.00 0.00 0.00 48 1017.5
20190825100117 26 317 3.2 8.0 0.00 0.00 0.00 55 1017.6
20190825094606 26 324 1.6 9.7 0.00 0.00 0.00 58 1017.6
20190825091605 25 58 3.2 8.0 0.00 0.00 0.00 58 1017.9
20190825090037 25 64 3.2 6.4 0.00 0.00 0.00 59 1017.9
20190825084532 25 29 1.6 6.4 0.00 0.00 0.00 60 1017.9
20190825083050 23 274 0.0 4.8 0.00 0.00 0.00 63 1018.1
20190825081542 23 280 1.6 4.8 0.00 0.00 0.00 64 1018.0
20190825080050 22 228 3.2 6.4 0.00 0.00 0.00 65 1017.9
20190825074520 22 355 0.0 4.8 0.00 0.00 0.00 67 1018.1
20190825073015 21 117 1.6 4.8 0.00 0.00 0.00 70 1018.0
20190825071507 20 119 0.0 3.2 0.00 0.00 0.00 71 1018.1
20190825070255 20 103 0.0 3.2 0.00 0.00 0.00 72 1018.1
20190825064630 19 103 0.0 3.2 0.00 0.00 0.00 73 1018.1
20190825063204 18 103 0.0 4.8 0.00 0.00 0.00 75 1018.1
20190825061632 17 105 0.0 0.0 0.00 0.00 0.00 77 1018.1
20190825060127 17 105 0.0 0.0 0.00 0.00 0.00 79 1018.0
20190825054637 16 105 0.0 0.0 0.00 0.00 0.00 83 1017.9
20190825053108 15 105 0.0 0.0 0.00 0.00 0.00 86 1017.9
20190825051602 15 105 0.0 0.0 0.00 0.00 0.00 87 1017.8
20190825050048 15 101 0.0 0.0 0.00 0.00 0.00 86 1018.0
20190825044538 14 101 0.0 0.0 0.00 0.00 0.00 86 1018.0
20190825043104 14 101 0.0 0.0 0.00 0.00 0.00 85 1017.9
20190825041606 14 101 0.0 0.0 0.00 0.00 0.00 84 1017.8
20190825040026 15 101 0.0 0.0 0.00 0.00 0.00 84 1017.9
20190825034524 15 101 0.0 0.0 0.00 0.00 0.00 84 1017.7
20190825033048 15 101 0.0 0.0 0.00 0.00 0.00 83 1017.8
20190825031536 15 101 0.0 0.0 0.00 0.00 0.00 82 1017.7